Tracking 27380 objects as of 6-Jun-2023
HD Live streaming from Space Station
objects crossing your sky now

HELIOS-2A

Track HELIOS-2A now!
10-day predictions
HELIOS-2A is classified as:


NORAD ID: 28492
Int'l Code: 2004-049A
Perigee: 580.3 km
Apogee: 599.8 km
Inclination: 98.3 °
Period: 96.3 minutes
Semi major axis: 6961 km
RCS: Unknown
Launch date: December 18, 2004
Source: France (FR)
Launch site: FRENCH GUIANA (FRGUI)

Optical reconnaissance; independent military intelligence capability for the EU.
Your satellite tracking list
Your tracking list is empty




NASA's NSSDC Master Catalog

Two Line Element Set (TLE):
1 28492U 04049A   23157.20143916  .00002212  00000-0  20889-3 0  9993
2 28492  98.2818 123.0333 0014016   7.4349 352.7075 14.94813466987927
Source of the keplerian elements: McCants